User: anonymous   Login
Location: Hepcat Sky Observatory
(29.9800°N, 95.6500°W)
Time: 14:28:31
(UTC-06:00)
Language:

Cosmos 1602 Rocket - Orbit

View from above orbital plane
View from above orbital plane
View from above satellite
View from above satellite

Ground track
Ground track

The orbit data is extracted from the following two-line orbital elements,

1 15332U 84105B   15026.24950716  .00000285  00000-0  32037-4 0  8713
2 15332 082.5354 283.8767 0021282 012.7654 107.7884 14.82952693637194
Epoch (UTC): 26 January 2015 05:59:17
Eccentricity: 0.0021282
inclination: 82.5354°
perigee height: 605 km
apogee height: 635 km
right ascension of ascending node: 283.8767°
argument of perigee: 12.7654°
revolutions per day: 14.82952693
mean anomaly at epoch: 107.7884°
orbit number at epoch: 63719

The dashed part of the orbit path shows where the satellite is in the earth's shadow,  

DLR